Weather History for Pittsfield, MA

Change the Weather History Date:

Monday, February 11, 2013

  Actual Average Record
Temperature  
Mean Temperature 27 °F 23 °F  
Max Temperature 41 °F 31 °F 55 °F (1960)
Min Temperature 13 °F 15 °F -18 °F (1962)
Degree Days  
Heating Degree Days 38 42  
Month to date heating degree days 493 475  
Since 1 July heating degree days 4309 4700  
Cooling Degree Days 0 0  
Month to date cooling degree days 0 0  
Year to date cooling degree days 0 0  
Moisture  
Dew Point 30 °F    
Average Humidity 71    
Maximum Humidity 100    
Minimum Humidity 42    
Precipitation  
Precipitation 0.09 in 0.10 in 1.49 in (1960)
Month to date precipitation 0.57 0.97  
Year to date precipitation 2.84 3.89  
Sea Level Pressure  
Sea Level Pressure 29.86 in    
Wind  
Wind Speed 6 mph (SW)    
Max Wind Speed 22 mph    
Max Gust Speed 28 mph    
Visibility 6 miles    
Events Fog , Rain , Snow    
T = Trace of Precipitation, MM = Missing Value Source: NWS Daily Summary

Daily Weather History Graph

Daily Weather History Graph

Search for Another Location

Airport:

Trip Planner

Search our weather history database for the weather conditions in past years. The results will help you decide how hot, cold, wet, or windy it might be!

Date:

Astronomy

Feb. 11, 2013 Rise Set
Actual Time 6:54 AM EST 5:20 PM EST
Civil Twilight 6:25 AM EST 5:49 PM EST
Nautical Twilight 5:52 AM EST 6:22 PM EST
Astronomical Twilight 5:20 AM EST 6:55 PM EST
Moon 7:14 AM EST (2/11) 7:17 PM EST (2/11)
Length of Visible Light 11h 23m
Length of Day
10h 25m
Waxing Crescent, 3% of the Moon is Illuminated
Feb 11
Waxing Crescent
Feb 17
First Quarter
Feb 25
Full
Mar 4
Last Quarter
Mar 11
New

Hourly Weather History & Observations

Time (EST) Temp. Windchill Dew Point Humidity Pressure Visibility Wind Dir Wind Speed Gust Speed Precip Events Conditions
12:54 AM 14.0 °F - 6.1 °F 71% 30.27 in 10.0 mi Calm Calm - N/A   Partly Cloudy
1:54 AM 17.1 °F - 6.1 °F 62% 30.24 in 10.0 mi Calm Calm - N/A   Mostly Cloudy
2:54 AM 18.0 °F - 8.1 °F 65% 30.22 in 10.0 mi Calm Calm - N/A   Mostly Cloudy
3:54 AM 28.9 °F 21.1 °F 9.0 °F 43% 30.16 in 10.0 mi South 8.1 mph - N/A   Mostly Cloudy
4:54 AM 30.0 °F 21.1 °F 10.9 °F 45% 30.15 in 10.0 mi SSW 10.4 mph 21.9 mph N/A   Overcast
5:54 AM 30.0 °F 18.7 °F 17.1 °F 59% 30.12 in 4.0 mi South 16.1 mph 23.0 mph 0.00 in Snow Light Snow
6:04 AM 28.4 °F 17.5 °F 21.2 °F 74% 30.07 in 2.0 mi South 13.8 mph 21.9 mph 0.00 in Snow Light Snow
6:17 AM 28.4 °F 19.7 °F 24.8 °F 86% 30.07 in 4.0 mi SSE 9.2 mph 20.7 mph 0.00 in Snow Light Snow
6:40 AM 28.4 °F 23.3 °F 24.8 °F 86% 30.05 in 6.0 mi Variable 4.6 mph - 0.00 in   Overcast
6:54 AM 28.9 °F 21.1 °F 26.1 °F 89% 30.10 in 8.0 mi ESE 8.1 mph - 0.00 in   Overcast
7:04 AM 28.4 °F 22.2 °F 26.6 °F 93% 30.04 in 1.8 mi ESE 5.8 mph - 0.01 in Snow Light Snow
7:13 AM 30.2 °F 24.3 °F 26.6 °F 86% 30.03 in 3.0 mi ESE 5.8 mph - 0.01 in Snow Light Snow
7:54 AM 30.9 °F 26.2 °F 27.0 °F 85% 30.06 in 10.0 mi East 4.6 mph - 0.03 in   Overcast
8:22 AM 30.2 °F 26.7 °F 28.4 °F 93% 29.99 in 2.0 mi ENE 3.5 mph - 0.02 in Snow Light Snow
8:34 AM 30.2 °F 24.3 °F 28.4 °F 93% 29.98 in 3.0 mi Variable 5.8 mph - 0.02 in   Overcast
8:41 AM 30.2 °F - 28.4 °F 93% 29.98 in 4.0 mi Calm Calm - 0.02 in   Overcast
8:54 AM 32.0 °F 27.5 °F 28.9 °F 88% 30.03 in 4.0 mi East 4.6 mph - 0.02 in   Overcast
9:29 AM 33.8 °F 29.6 °F 30.2 °F 87% 29.95 in 2.0 mi Variable 4.6 mph - 0.00 in   Overcast
9:54 AM 33.1 °F 28.7 °F 30.9 °F 92% 29.99 in 3.0 mi Variable 4.6 mph - 0.01 in   Overcast
10:37 AM 33.8 °F 29.6 °F 33.8 °F 100% 29.90 in 2.0 mi Variable 4.6 mph - 0.00 in Rain Light Rain
10:54 AM 35.1 °F - 33.1 °F 92% 29.94 in 3.0 mi Calm Calm - 0.01 in Rain Light Rain
11:54 AM 37.0 °F 30.4 °F 35.1 °F 93% 29.86 in 4.0 mi SSE 9.2 mph - 0.01 in Rain Light Rain
12:54 PM 39.0 °F 32.8 °F 37.0 °F 93% 29.82 in 7.0 mi SSW 9.2 mph - 0.00 in   Overcast
1:54 PM 39.9 °F 35.1 °F 37.9 °F 93% 29.78 in 10.0 mi SW 6.9 mph - N/A   Overcast
2:54 PM 39.9 °F - 37.9 °F 93% 29.74 in 10.0 mi Calm Calm - N/A   Overcast
3:54 PM 39.9 °F 35.8 °F 37.9 °F 93% 29.69 in 10.0 mi SSW 5.8 mph 16.1 mph N/A   Overcast
4:54 PM 39.0 °F 34.0 °F 37.9 °F 96% 29.68 in 10.0 mi SSW 6.9 mph - N/A   Overcast
5:54 PM 39.0 °F 35.7 °F 37.9 °F 96% 29.66 in 10.0 mi SSW 4.6 mph - N/A   Overcast
6:54 PM 39.0 °F - 37.9 °F 96% 29.64 in 10.0 mi Calm Calm - N/A   Overcast
7:13 PM 37.4 °F - 37.4 °F 100% 29.61 in 9.0 mi Calm Calm - N/A   Overcast
7:54 PM 37.0 °F 31.0 °F 36.0 °F 96% 29.65 in 3.0 mi WNW 8.1 mph - N/A   Overcast
8:02 PM 37.4 °F 32.1 °F 37.4 °F 100% 29.63 in 2.5 mi WNW 6.9 mph - N/A   Overcast
8:11 PM 37.4 °F 30.8 °F 37.4 °F 100% 29.64 in 4.0 mi West 9.2 mph - N/A   Overcast
8:25 PM 37.4 °F 32.8 °F 37.4 °F 100% 29.62 in 1.8 mi SW 5.8 mph 16.1 mph N/A   Overcast
8:47 PM 37.4 °F 32.8 °F 35.6 °F 93% 29.62 in 0.8 mi WSW 5.8 mph - N/A   Mist
8:54 PM 37.0 °F 33.3 °F 37.0 °F 100% 29.64 in 0.5 mi SW 4.6 mph - N/A Fog Fog
9:17 PM 35.6 °F 30.7 °F 35.6 °F 100% 29.63 in 0.2 mi WNW 5.8 mph - N/A Fog Fog
9:33 PM 35.6 °F 28.0 °F 35.6 °F 100% 29.64 in 0.8 mi West 10.4 mph - 0.00 in Rain Light Rain
9:38 PM 35.6 °F 25.2 °F 35.6 °F 100% 29.65 in 2.0 mi WNW 18.4 mph 25.3 mph 0.00 in Rain Light Rain
9:45 PM 35.6 °F 26.6 °F 35.6 °F 100% 29.65 in 6.0 mi WNW 13.8 mph 27.6 mph 0.01 in Rain Light Rain
9:54 PM 35.1 °F 25.5 °F 34.0 °F 96% 29.68 in 8.0 mi WNW 15.0 mph 23.0 mph 0.01 in Rain Light Rain
10:00 PM 35.6 °F 26.6 °F 33.8 °F 93% 29.66 in 8.0 mi WNW 13.8 mph 23.0 mph 0.00 in Rain Light Rain
10:54 PM 34.0 °F 25.5 °F 30.9 °F 89% 29.66 in 10.0 mi WNW 11.5 mph 18.4 mph 0.00 in   Overcast
11:54 PM 33.1 °F 28.7 °F 28.9 °F 85% 29.66 in 10.0 mi West 4.6 mph 19.6 mph 0.00 in   Overcast